Location: Louisville
(33.0010°N, 82.4110°W)
Time: 19:52:08
(UTC-05:00)

N. Korean satellite - Visible Passes

Search period start: 22 January 2019 00:00
Search period end: 01 February 2019 00:00
Orbit: 458 x 509 km, 97.2° (Epoch: 21 January)

Date Brightness Start Highest point End Pass type
(mag) Time Alt. Az. Time Alt. Az. Time Alt. Az.
22 Jan 6.9 06:59:12 10° N 07:02:46 46° WNW 07:06:13 10° SSW visible
22 Jan 10.1 19:05:44 10° WSW 19:07:20 12° W 19:08:58 10° WNW visible
23 Jan 6.8 06:34:28 10° NNE 06:38:08 74° E 06:41:44 10° S visible
23 Jan 9.1 18:39:26 10° SSW 18:42:33 26° W 18:45:43 10° NW visible
24 Jan 8.6 06:10:09 10° NNE 06:13:26 31° E 06:16:39 10° SSE visible
25 Jan 10.0 05:46:35 10° ENE 05:48:38 14° E 05:50:41 10° SE visible
26 Jan 6.7 06:53:56 10° N 06:57:30 55° WNW 07:01:01 10° SSW visible
26 Jan 10.0 18:59:56 10° SW 19:02:03 15° W 19:04:12 10° WNW visible
27 Jan 7.2 06:29:16 10° NNE 06:32:52 61° E 06:36:24 10° S visible
27 Jan 8.9 18:33:58 10° SSW 18:37:16 31° W 18:40:36 10° NNW visible
28 Jan 9.0 06:05:02 10° NE 06:08:09 26° E 06:11:10 10° SSE visible
29 Jan 10.1 05:41:49 10° ENE 05:43:19 12° E 05:44:49 10° ESE visible
30 Jan 6.5 06:48:38 10° N 06:52:13 66° WNW 06:55:44 10° SSW visible
30 Jan 9.9 18:54:15 10° SW 18:56:44 17° W 18:59:15 10° NW visible
31 Jan 7.5 06:24:02 10° NNE 06:27:34 50° E 06:31:00 10° S visible
31 Jan 8.5 18:28:32 10° SSW 18:31:58 36° W 18:35:27 10° NNW visible
